Martinsburg, WV

3:41 AM EST on December 06, 2019 (GMT -0500)
Eastern W Va Regional-Shepherd

Weather History for KMRB - October, 2019

Change the Weather History Date:

Sunday, October 20, 2019

  Actual Average Record
Temperature  
Mean Temperature 52 °F 52 °F  
Max Temperature 55 °F 64 °F 86 °F (1938)
Min Temperature 48 °F 41 °F 19 °F (1972)
Degree Days  
Heating Degree Days 14 13  
Month to date heating degree days 161 196  
Since 1 July heating degree days 173 287  
Cooling Degree Days 0 0  
Month to date cooling degree days 37 8  
Year to date cooling degree days 1280 893  
Growing Degree Days 2 (Base 50)    
Moisture  
Dew Point 50 °F    
Average Humidity 91    
Maximum Humidity 100    
Minimum Humidity 80    
Precipitation  
Precipitation 0.25 in 0.10 in 1.79 in (1995)
Month to date precipitation 2.05 1.98  
Year to date precipitation 36.95 31.79  
Sea Level Pressure  
Sea Level Pressure 29.95 in    
Wind  
Wind Speed 4 mph ()    
Max Wind Speed 14 mph    
Max Gust Speed 18 mph    
Visibility 7.3 miles    
Events Rain    
T = Trace of Precipitation, MM = Missing Value Source: Averaged Metar Reports

Daily Weather History Graph

Daily Weather History Graph

Search for Another Location

Airport or City:

Astronomy

Oct. 20, 2019 Rise Set
Actual Time 7:26 AM EDT 6:26 PM EDT
Civil Twilight 6:59 AM EDT 6:53 PM EDT
Nautical Twilight 6:28 AM EDT 7:24 PM EDT
Astronomical Twilight 5:57 AM EDT 7:55 PM EDT
Moon 11:34 PM EDT (10/20) 1:51 PM EDT (10/20)
Length of Visible Light 11h 53m
Length of Day
10h 59m
Waning Gibbous, 59% of the Moon is Illuminated
Oct 20
Waning Gibbous
Oct 21
Last Quarter
Oct 27
New
Nov 4
First Quarter
Nov 12
Full

Hourly Weather History & Observations

Time (EDT) Temp. Dew Point Humidity Pressure Visibility Wind Dir Wind Speed Gust Speed Precip Events Conditions
12:53 AM 48.0 °F 44.1 °F 86% 29.97 in 10.0 mi Calm Calm - N/A   Clear
1:53 AM 48.9 °F 45.0 °F 86% 29.95 in 10.0 mi Calm Calm - 0.00 in Rain Light Rain
2:53 AM 48.9 °F 45.0 °F 86% 29.94 in 10.0 mi Calm Calm - 0.00 in   Clear
3:53 AM 50.0 °F 45.0 °F 83% 29.93 in 10.0 mi Calm Calm - N/A   Overcast
4:53 AM 50.0 °F 46.9 °F 89% 29.93 in 10.0 mi Calm Calm - 0.00 in Rain Light Rain
5:53 AM 48.9 °F 48.0 °F 97% 29.95 in 5.0 mi Calm Calm - 0.05 in Rain Rain
6:53 AM 50.0 °F 48.0 °F 93% 29.95 in 5.0 mi NNE 3.5 mph - 0.04 in Rain Light Rain
7:53 AM 48.9 °F 48.0 °F 97% 29.96 in 5.0 mi ENE 3.5 mph - 0.06 in Rain Light Rain
8:53 AM 50.0 °F 48.9 °F 96% 29.97 in 5.0 mi NW 3.5 mph - 0.03 in Rain Light Rain
9:16 AM 50.0 °F 48.9 °F 96% 29.97 in 2.5 mi North 3.5 mph - 0.01 in Rain Light Rain
9:53 AM 50.0 °F 48.9 °F 96% 29.98 in 2.5 mi NNE 3.5 mph - 0.04 in Rain Light Rain
10:00 AM 51.1 °F 48.9 °F 92% 29.98 in 3.0 mi NNE 3.5 mph - 0.00 in Rain Light Rain
10:37 AM 51.1 °F 50.0 °F 96% 29.96 in 5.0 mi NNE 5.8 mph - 0.00 in Rain Light Rain
10:53 AM 52.0 °F 50.0 °F 93% 29.97 in 2.5 mi NNE 5.8 mph - 0.00 in Rain Light Rain
11:00 AM 52.0 °F 50.0 °F 93% 29.97 in 9.0 mi NNE 4.6 mph - 0.00 in   Overcast
11:43 AM 53.1 °F 51.1 °F 93% 29.96 in 7.0 mi North 8.1 mph - 0.00 in   Overcast
11:53 AM 53.1 °F 51.1 °F 93% 29.96 in 8.0 mi NNE 5.8 mph - 0.00 in   Overcast
12:53 PM 54.0 °F 51.1 °F 90% 29.94 in 9.0 mi NNE 9.2 mph - N/A   Overcast
1:53 PM 54.0 °F 51.1 °F 90% 29.92 in 7.0 mi North 10.4 mph - 0.01 in Rain Light Rain
2:53 PM 54.0 °F 51.1 °F 90% 29.91 in 5.0 mi North 11.5 mph - 0.00 in Rain Light Rain
3:53 PM 54.0 °F 52.0 °F 93% 29.92 in 8.0 mi North 9.2 mph - 0.02 in   Overcast
4:09 PM 54.0 °F 52.0 °F 93% 29.92 in 9.0 mi North 9.2 mph - N/A   Overcast
4:19 PM 55.0 °F 52.0 °F 89% 29.93 in 9.0 mi North 9.2 mph - N/A   Overcast
4:53 PM 54.0 °F 52.0 °F 93% 29.94 in 8.0 mi North 11.5 mph - 0.00 in   Overcast
5:53 PM 54.0 °F 51.1 °F 90% 29.94 in 9.0 mi North 10.4 mph - 0.00 in   Overcast
6:10 PM 54.0 °F 51.1 °F 90% 29.93 in 7.0 mi North 8.1 mph - 0.00 in   Overcast
6:29 PM 54.0 °F 51.1 °F 90% 29.94 in 6.0 mi North 9.2 mph - 0.00 in   Overcast
6:39 PM 54.0 °F 51.1 °F 90% 29.95 in 8.0 mi North 10.4 mph - 0.00 in   Overcast
6:53 PM 54.0 °F 51.1 °F 90% 29.95 in 8.0 mi North 10.4 mph - 0.00 in   Overcast
7:03 PM 54.0 °F 51.1 °F 90% 29.95 in 8.0 mi North 9.2 mph - N/A   Overcast
7:53 PM 54.0 °F 51.1 °F 90% 29.96 in 8.0 mi North 9.2 mph - 0.00 in Rain Light Rain
8:53 PM 54.0 °F 51.1 °F 90% 29.97 in 10.0 mi North 5.8 mph - 0.00 in   Overcast
9:53 PM 53.1 °F 51.1 °F 93% 29.99 in 10.0 mi North 6.9 mph - N/A   Overcast
10:53 PM 53.1 °F 51.1 °F 93% 30.00 in 8.0 mi NNW 5.8 mph - N/A   Overcast
11:53 PM 53.1 °F 50.0 °F 89% 30.01 in 10.0 mi NW 8.1 mph - N/A   Overcast